Change the Weather History Date:

Tuesday, July 2, 2013

  Actual Average Record
Temperature  
Mean Temperature 57 °F -  
Max Temperature 64 °F 65 °F 71 °F (2006)
Min Temperature 50 °F 52 °F 46 °F (1997)
Degree Days  
Heating Degree Days 8    
Growing Degree Days 7 (Base 50)    
Moisture  
Dew Point 54 °F    
Average Humidity 95    
Maximum Humidity 100    
Minimum Humidity 82    
Precipitation  
Precipitation 0.02 in 0.09 in - ()
Sea Level Pressure  
Sea Level Pressure 29.67 in    
Wind  
Wind Speed 10 mph ()    
Max Wind Speed 17 mph    
Max Gust Speed -    
Visibility 6.0 miles    
Events Fog , Rain    
Averages and records for this station are not official NWS values.
T = Trace of Precipitation, MM = Missing Value Source: Averaged Metar Reports

Daily Weather History Graph

Daily Weather History Graph

Search for Another Location

Airport or City:

Trip Planner

Search our weather history database for the weather conditions in past years. The results will help you decide how hot, cold, wet, or windy it might be!

Date:

Astronomy

Jul. 02, 2013 Rise Set
Actual Time 5:19 AM IST 9:55 PM IST
Civil Twilight 4:32 AM IST 10:43 PM IST
Nautical Twilight 3:17 AM IST 11:57 PM IST
Astronomical Twilight 2:10 AM IST 1:05 AM IST
Moon 1:39 AM IST (7/2) 4:36 PM IST (7/2)
Length of Visible Light 18h 11m
Length of Day
16h 35m
Waning Crescent, 28% of the Moon is Illuminated
Jul 2
Waning Crescent
Jul 8
New
Jul 16
First Quarter
Jul 22
Full
Jul 29
Last Quarter

Hourly Weather History & Observations

Time (IST) Temp. Dew Point Humidity Pressure Visibility Wind Dir Wind Speed Gust Speed Precip Events Conditions
12:00 AM 51.8 °F 50.0 °F 94% 29.92 in 6.2 mi South 9.2 mph - N/A Rain Light Rain
12:30 AM 51.8 °F 51.8 °F 100% 29.92 in 6.2 mi South 6.9 mph - N/A Rain Light Rain
1:00 AM 52 °F 51 °F 97% 29.92 in 10 mi South 6.7 mph - - Rain Light Rain
1:00 AM 51.8 °F 51.8 °F 100% 29.92 in 6.2 mi South 6.9 mph - N/A Rain Light Rain
1:30 AM 51.8 °F 51.8 °F 100% 29.89 in 6.2 mi South 9.2 mph - N/A Rain Light Rain
2:00 AM 51.8 °F 51.8 °F 100% 29.89 in 6.2 mi South 8.1 mph - N/A Rain Light Rain
2:30 AM 51.8 °F 51.8 °F 100% 29.86 in 6.2 mi South 11.5 mph - N/A Rain Light Rain
3:00 AM 51.8 °F 51.8 °F 100% 29.83 in 6.2 mi South 13.8 mph - N/A Rain Light Rain
3:30 AM 53.6 °F 51.8 °F 94% 29.83 in 6.2 mi SSW 13.8 mph - N/A Rain Light Rain
4:00 AM 51.8 °F 50.0 °F 94% 29.80 in 6.2 mi SSW 12.7 mph - N/A Rain Light Rain
4:30 AM 51.8 °F 51.8 °F 100% 29.80 in 6.2 mi South 12.7 mph - N/A Rain Light Rain
5:00 AM 51.8 °F 48.2 °F 88% 29.77 in 6.2 mi SSW 16.1 mph - N/A   Mostly Cloudy
5:30 AM 50.0 °F 46.4 °F 87% 29.77 in 6.2 mi South 11.5 mph - N/A   Mostly Cloudy
6:00 AM 51.8 °F 46.4 °F 82% 29.74 in 6.2 mi South 11.5 mph - N/A Rain Light Rain
6:30 AM 51.8 °F 50.0 °F 94% 29.74 in 6.2 mi South 9.2 mph - N/A   Mostly Cloudy
7:00 AM 52 °F 51 °F 95% 29.73 in 16 mi South 8.9 mph - - Rain Light Rain
7:00 AM 51.8 °F 51.8 °F 100% 29.71 in 6.2 mi South 9.2 mph - N/A   Mostly Cloudy
7:30 AM 53.6 °F 51.8 °F 94% 29.68 in 4.3 mi South 17.3 mph - N/A Rain Light Rain
8:00 AM 51.8 °F 51.8 °F 100% 29.71 in 5.6 mi SSW 15.0 mph - N/A Rain Light Rain
8:30 AM 51.8 °F 51.8 °F 100% 29.68 in 2.8 mi SSW 11.5 mph - N/A Rain Light Rain
9:00 AM 51.8 °F 51.8 °F 100% 29.68 in 2.2 mi South 11.5 mph - N/A Rain Light Rain
9:30 AM 53.6 °F 53.6 °F 100% 29.68 in 1.6 mi SSW 13.8 mph - N/A Rain Light Rain
10:00 AM 53.6 °F 53.6 °F 100% 29.65 in 0.4 mi South 12.7 mph - N/A Fog , Rain Light Rain
10:30 AM 55.4 °F 55.4 °F 100% 29.62 in 0.2 mi SSW 13.8 mph - N/A Fog , Rain Light Rain
11:00 AM 55.4 °F 55.4 °F 100% 29.65 in 0.2 mi SSW 11.5 mph - N/A Fog , Rain Light Rain
11:30 AM 55.4 °F 55.4 °F 100% 29.62 in 0.7 mi SSW 10.4 mph - N/A Rain Light Rain
12:00 PM 55.4 °F 55.4 °F 100% 29.62 in 5.0 mi SW 11.5 mph - N/A   Mostly Cloudy
12:30 PM 57.2 °F 57.2 °F 100% 29.62 in 6.2 mi SW 12.7 mph - N/A   Mostly Cloudy
1:00 PM 57 °F 57 °F 100% 29.62 in 16 mi SW 8.9 mph - -   Partly Cloudy
1:00 PM 57.2 °F 57.2 °F 100% 29.62 in 6.2 mi SW 9.2 mph - N/A   Mostly Cloudy
1:30 PM 59.0 °F 59.0 °F 100% 29.59 in 6.2 mi WSW 12.7 mph - N/A   Mostly Cloudy
2:00 PM 60.8 °F 59.0 °F 94% 29.59 in 6.2 mi WSW 13.8 mph - N/A   Mostly Cloudy
2:30 PM 62.6 °F 60.8 °F 94% 29.59 in 6.2 mi SW 12.7 mph - N/A   Scattered Clouds
3:00 PM 62.6 °F 59.0 °F 88% 29.59 in 6.2 mi SW 12.7 mph - N/A   Mostly Cloudy
3:30 PM 62.6 °F 60.8 °F 94% 29.56 in 6.2 mi SW 15.0 mph - N/A   Mostly Cloudy
4:00 PM 60.8 °F 59.0 °F 94% 29.56 in 6.2 mi SSW 12.7 mph - N/A   Mostly Cloudy
4:30 PM 60.8 °F 59.0 °F 94% 29.56 in 6.2 mi SW 16.1 mph - N/A   Mostly Cloudy
5:00 PM 60.8 °F 59.0 °F 94% 29.56 in 6.2 mi SW 13.8 mph - N/A   Mostly Cloudy
5:30 PM 59.0 °F 57.2 °F 94% 29.56 in 6.2 mi WSW 12.7 mph - N/A   Mostly Cloudy
6:00 PM 59.0 °F 57.2 °F 94% 29.56 in 6.2 mi WSW 15.0 mph - N/A   Mostly Cloudy
6:30 PM 60.8 °F 57.2 °F 88% 29.56 in 6.2 mi West 16.1 mph - N/A   Mostly Cloudy
7:00 PM 60 °F 57 °F 86% 29.56 in 12 mi WSW 13.4 mph - -   Mostly Cloudy
7:00 PM 60.8 °F 57.2 °F 88% 29.53 in 6.2 mi WSW 12.7 mph - N/A   Mostly Cloudy
7:30 PM 59.0 °F 57.2 °F 94% 29.56 in 6.2 mi WSW 15.0 mph - N/A   Mostly Cloudy
8:00 PM 59.0 °F 55.4 °F 88% 29.56 in 6.2 mi WSW 13.8 mph - N/A   Mostly Cloudy
8:30 PM 59.0 °F 55.4 °F 88% 29.56 in 6.2 mi WSW 11.5 mph - N/A   Mostly Cloudy
9:00 PM 57.2 °F 55.4 °F 94% 29.56 in 6.2 mi West 12.7 mph - N/A Rain Light Rain Showers
9:30 PM 55.4 °F 55.4 °F 100% 29.56 in 6.2 mi West 10.4 mph - N/A   Mostly Cloudy
10:00 PM 55.4 °F 53.6 °F 94% 29.59 in 5.0 mi West 10.4 mph - N/A Rain Light Rain Showers
10:30 PM 53.6 °F 51.8 °F 94% 29.59 in 6.2 mi West 15.0 mph - N/A Rain Light Rain Showers
11:00 PM 53.6 °F 51.8 °F 94% 29.59 in 6.2 mi West 10.4 mph - N/A   Mostly Cloudy
11:30 PM 53.6 °F 51.8 °F 94% 29.62 in 6.2 mi West 6.9 mph - N/A   Mostly Cloudy